Fort Worth, TX

12:48 PM CDT on August 20, 2017 (GMT -0500)
Fort Worth Meacham International

Weather History for KFTW - August, 2013

Change the Weather History Date:

Friday, August 9, 2013

  Actual Average Record
Temperature  
Mean Temperature 90 °F -  
Max Temperature 102 °F 94 °F 107 °F (2011)
Min Temperature 81 °F 73 °F 68 °F (1997)
Cooling Degree Days 26    
Growing Degree Days 40 (Base 50)    
Moisture  
Dew Point 67 °F    
Average Humidity 50    
Maximum Humidity 69    
Minimum Humidity 31    
Precipitation  
Precipitation 0.00 in - - ()
Sea Level Pressure  
Sea Level Pressure 29.87 in    
Wind  
Wind Speed 7 mph (SSE)    
Max Wind Speed 14 mph    
Max Gust Speed 21 mph    
Visibility 9 miles    
Events Thunderstorm    
Averages and records for this station are not official NWS values.
T = Trace of Precipitation, MM = Missing Value Source: NWS Daily Summary

Daily Weather History Graph

Daily Weather History Graph

Search for Another Location

Airport or City:

Trip Planner

Search our weather history database for the weather conditions in past years. The results will help you decide how hot, cold, wet, or windy it might be!

Date:

Astronomy

Aug. 09, 2013 Rise Set
Actual Time 6:48 AM CDT 8:20 PM CDT
Civil Twilight 6:22 AM CDT 8:46 PM CDT
Nautical Twilight 5:50 AM CDT 9:18 PM CDT
Astronomical Twilight 5:17 AM CDT 9:51 PM CDT
Moon 9:23 AM CDT (8/9) 9:44 PM CDT (8/9)
Length of Visible Light 14h 24m
Length of Day
13h 31m
Waxing Crescent, 8% of the Moon is Illuminated
Aug 9
Waxing Crescent
Aug 14
First Quarter
Aug 20
Full
Aug 28
Last Quarter
Sep 5
New

Hourly Weather History & Observations

Time (CDT) Temp. Heat Index Dew Point Humidity Pressure Visibility Wind Dir Wind Speed Gust Speed Precip Events Conditions
12:53 AM 82.0 °F 84.9 °F 68.0 °F 62% 29.81 in 10.0 mi Calm Calm - N/A   Clear
1:53 AM 84.0 °F 86.3 °F 66.0 °F 55% 29.82 in 10.0 mi SE 5.8 mph - N/A   Clear
2:53 AM 82.0 °F 83.4 °F 64.0 °F 54% 29.82 in 10.0 mi South 5.8 mph - N/A   Clear
3:53 AM 84.0 °F 86.5 °F 66.9 °F 56% 29.83 in 10.0 mi South 10.4 mph - N/A   Clear
4:53 AM 82.0 °F 84.5 °F 66.9 °F 60% 29.85 in 10.0 mi SSW 9.2 mph - N/A   Clear
5:53 AM 81.0 °F 83.8 °F 68.0 °F 65% 29.86 in 10.0 mi South 10.4 mph - N/A   Clear
6:53 AM 81.0 °F 83.8 °F 68.0 °F 65% 29.86 in 10.0 mi South 9.2 mph - N/A   Clear
7:53 AM 81.0 °F 83.8 °F 68.0 °F 65% 29.88 in 8.0 mi SSW 8.1 mph - N/A   Clear
8:53 AM 82.9 °F 86.5 °F 69.1 °F 63% 29.89 in 6.0 mi South 13.8 mph - N/A   Haze
9:53 AM 84.0 °F 87.8 °F 69.1 °F 61% 29.89 in 8.0 mi SSW 4.6 mph - N/A   Clear
10:53 AM 86.0 °F 90.1 °F 69.1 °F 57% 29.90 in 8.0 mi Calm Calm - N/A   Clear
11:53 AM 88.0 °F 91.4 °F 68.0 °F 51% 29.91 in 4.0 mi South 5.8 mph - N/A   Haze
12:53 PM 91.9 °F 96.9 °F 69.1 °F 47% 29.91 in 10.0 mi South 9.2 mph - N/A   Clear
1:53 PM 93.9 °F 98.6 °F 68.0 °F 43% 29.90 in 9.0 mi Variable 3.5 mph - N/A   Clear
2:53 PM 97.0 °F 102.8 °F 69.1 °F 40% 29.88 in 7.0 mi SSW 9.2 mph - N/A   Clear
3:53 PM 100.0 °F 104.2 °F 66.0 °F 33% 29.86 in 9.0 mi SW 6.9 mph 19.6 mph N/A   Partly Cloudy
4:53 PM 100.9 °F 104.6 °F 64.9 °F 31% 29.83 in 10.0 mi SE 12.7 mph 16.1 mph N/A   Clear
5:53 PM 99.0 °F 102.3 °F 64.9 °F 33% 29.82 in 9.0 mi SSE 3.5 mph - N/A   Partly Cloudy
6:53 PM 98.1 °F 99.6 °F 63.0 °F 31% 29.83 in 8.0 mi SSW 3.5 mph - N/A   Partly Cloudy
7:10 PM 96.8 °F 98.0 °F 62.6 °F 32% 29.87 in 9.0 mi WNW 5.8 mph - N/A Thunderstorm Partly Cloudy
7:32 PM 89.6 °F 92.2 °F 66.2 °F 46% 29.89 in 10.0 mi North 11.5 mph - N/A Thunderstorm Clear
7:53 PM 90.0 °F 91.7 °F 64.9 °F 43% 29.87 in 9.0 mi ENE 12.7 mph - N/A Thunderstorm Partly Cloudy
8:05 PM 89.6 °F 89.5 °F 60.8 °F 38% 29.89 in 10.0 mi ENE 11.5 mph 20.7 mph N/A Thunderstorm Partly Cloudy
8:18 PM 87.8 °F 88.5 °F 62.6 °F 43% 29.89 in 10.0 mi East 10.4 mph 20.7 mph N/A   Clear
8:53 PM 87.1 °F 87.8 °F 63.0 °F 44% 29.88 in 10.0 mi NNE 9.2 mph 19.6 mph N/A   Clear
9:53 PM 86.0 °F 88.2 °F 66.0 °F 51% 29.91 in 10.0 mi NNE 11.5 mph - N/A   Clear
10:53 PM 84.0 °F 87.8 °F 69.1 °F 61% 29.93 in 10.0 mi NE 8.1 mph - N/A   Clear
11:53 PM 82.0 °F 86.3 °F 71.1 °F 69% 29.95 in 10.0 mi North 5.8 mph - N/A   Clear